Content
SEND FEEDBACK

Daily
Averages
Monthly
Summary
United States of America

WILMINGTON, NORTH CAROLINA


Home > North America > United States > North Carolina
Elevation: 72 feet     Latitude: 34 16N     Longitude: 077 54W

WEATHER
 
SELECT A DAY
Number of Records: 208,995;   Date Range: 1/1/95 - 8/30/14
 
SHARE

PRINT THIS DATA

[ ← Previous Day ]
WEATHER ALMANAC - FEBRUARY 3, 2014
[ Next Day → ]
[ °C ]   °F
Weather ElementAverageHighLow
Temperature62.8 °F71.6 °F (11:06 am)48 °F (11:53 pm)
Dewpoint57.3 °F66.2 °F (11:06 am)39.9 °F (11:53 pm)
Humidity82.4 %94 % (3:20 am)70 % (3:53 pm)
Barometer30.04 in30.22 in (11:53 pm)29.96 in (2:53 pm)
Wind Speed11.1 mph19.6 mph (11:06 am)
Wind Gust33.4 mph (11:06 am)
Weather ElementAverage
Visibility9.5 mi
Wind DirectionSSE (165.5 °)

Weather ElementTotal
Precipitation0.02 in
Heating Degree Days5.2 (Base 65)
Growing Degree Days9.8 (Base 50)
Averaged from 38 records on February 3, 2014
WEATHER CONDITIONS BREAKOUT
WIND DIRECTION BREAKOUT
WEATHER BY HOUR - FEBRUARY 3, 2014
[ °C ]   °F
Local TimeTemperatureDewpointHumidityBarometerVisibilityWind DirectionWind SpeedGust SpeedPrecipitationEventsConditions
1:53 AM55.0 °F51.1 °F86 %30.04 in10.0 miSSW (200°)3.5 mphClear
2:53 AM55.0 °F52.0 °F89 %30.03 in10.0 miSouth (180°)3.5 mphClear
3:20 AM51.8 °F50.0 °F94 %30.02 in2.5 miCalmClear
3:28 AM53.6 °F51.8 °F94 %30.02 in5.0 miSouth (180°)3.5 mphClear
3:53 AM55.0 °F53.1 °F93 %30.02 in10.0 miSouth (180°)3.5 mphClear
4:53 AM62.1 °F57.9 °F86 %30.00 in10.0 miSouth (190°)9.2 mphClear
5:53 AM63.0 °F59.0 °F87 %30.00 in10.0 miSouth (190°)10.4 mphOvercast
6:53 AM64.9 °F61.0 °F87 %30.00 in10.0 miSSW (200°)10.4 mphMostly Cloudy
7:17 AM64.4 °F62.6 °F94 %30.01 in10.0 miSSW (200°)9.2 mphMostly Cloudy
7:33 AM66.2 °F62.6 °F88 %30.02 in10.0 miSSW (210°)11.5 mphOvercast
7:53 AM66.0 °F63.0 °F90 %30.02 in8.0 miSW (220°)9.2 mphOvercast
8:04 AM66.2 °F62.6 °F88 %30.02 in6.0 miSSW (210°)9.2 mph17.3 mphOvercast
8:53 AM66.9 °F64.0 °F90 %30.03 in10.0 miSSW (210°)12.7 mph20.7 mph0.01 inOvercast
9:17 AM68.0 °F64.4 °F88 %30.03 in10.0 miSSW (210°)13.8 mph24.2 mphOvercast
9:53 AM71.1 °F64.9 °F81 %30.01 in10.0 miSSW (200°)13.8 mph31.1 mphOvercast
10:53 AM71.1 °F66.0 °F84 %30.01 in10.0 miSW (230°)16.1 mph28.8 mph0.01 inOvercast
11:06 AM71.6 °F66.2 °F83 %30.02 in10.0 miSW (230°)19.6 mph33.4 mphOvercast
11:33 AM69.8 °F64.4 °F83 %30.01 in10.0 miSW (220°)12.7 mph26.5 mphOvercast
11:53 AM70.0 °F64.9 °F84 %30.00 in10.0 miSW (220°)17.3 mph25.3 mphOvercast
12:01 PM69.8 °F64.4 °F83 %30.00 in10.0 miSW (220°)18.4 mph26.5 mphOvercast
12:05 PM69.8 °F64.4 °F83 %29.99 in10.0 miSSW (210°)17.3 mph26.5 mphOvercast
12:15 PM69.8 °F64.4 °F83 %29.99 in10.0 miSW (220°)18.4 mph27.6 mphOvercast
12:53 PM70.0 °F64.0 °F81 %29.98 in10.0 miSW (220°)17.3 mph23.0 mphOvercast
1:53 PM71.1 °F63.0 °F75 %29.97 in10.0 miSSW (210°)11.5 mphOvercast
2:53 PM71.1 °F62.1 °F73 %29.96 in10.0 miSSW (210°)9.2 mphOvercast
3:53 PM71.1 °F61.0 °F70 %29.97 in10.0 miSW (230°)10.4 mphOvercast
4:53 PM71.1 °F61.0 °F70 %29.99 in10.0 miSW (230°)5.8 mphScattered Clouds
5:53 PM66.9 °F61.0 °F81 %30.01 in10.0 miCalmOvercast
6:53 PM64.9 °F60.1 °F84 %30.06 in10.0 miNorth (350°)18.4 mph25.3 mphOvercast
7:10 PM60.8 °F51.8 °F72 %30.08 in10.0 miNorth (10°)18.4 mph27.6 mphOvercast
7:19 PM57.2 °F51.8 °F82 %30.10 in10.0 miNorth (350°)10.4 mph24.2 mphOvercast
7:53 PM54.0 °F48.0 °F80 %30.12 in10.0 miNNE (20°)10.4 mph20.7 mphMostly Cloudy
8:53 PM52.0 °F46.0 °F80 %30.15 in10.0 miNNE (20°)12.7 mphMostly Cloudy
9:38 PM51.8 °F44.6 °F76 %30.18 in10.0 miNorth (10°)10.4 mphOvercast
9:53 PM52.0 °F44.1 °F74 %30.19 in10.0 miNorth (10°)10.4 mphOvercast
10:01 PM51.8 °F42.8 °F71 %30.19 in10.0 miNNE (30°)9.2 mphOvercast
10:53 PM50.0 °F41.0 °F71 %30.20 in10.0 miNNE (30°)12.7 mphOvercast
11:53 PM48.0 °F39.9 °F74 %30.22 in10.0 miNNE (30°)11.5 mphOvercast
Hourly data recorded from KILM, located miles away from Wilmington, North Carolina







STORIES FROM OUR PARTNERS